Flag Weather past 2 weeks in Gliwice, Poland

Now
32 °F

Ice fog.


Feels Like: 24 °F
Forecast: 30 / 36 °F
Wind: 9 mph from East

Location: Katowice Airport

Current Time: Nov 27, 2014 at 4:04:25 AM

Latest Report: Nov 27, 2014 at 3:30 AM


Visibility: 2 mi

Pressure: 30.15 "Hg

Humidity: 100%

Dew point: 32 °F

Location of GliwiceLocation

Historic Weather in Gliwice — Graph

°F

Gliwice temperature yesterday

Maximum temperature yesterday: 41 °F (at 11:30 AM)
Minimum temperature yesterday: 36 °F (at 2:30 AM)
Average temperature yesterday: 38 °F

Past Weeks' High & Low Weather Summary

 TemperatureHumidityPressure
High59 °F (Nov 12, 12:30 PM)100% (Nov 13, 3:00 AM)30.42 "Hg (Nov 13, 3:00 AM)
Low32 °F (Nov 23, 10:30 PM)63% (Nov 13, 2:00 PM)29.74 "Hg (Nov 16, 11:00 AM)
Average41 °F93%30.09 "Hg
* Reported Nov 12 3:00 AM — Nov 27 3:00 AM, Gliwice, Weather by CustomWeather, © 2014

Note: Actual official high and low records may vary slightly from our data, if they occured in-between our weather recording intervals... More about our weather records

Advertising

Gliwice weather history for previous 24 hours

 ConditionsComfort  
Time TempWeatherWind HumidityBarometerVisibility
3:00 AM
Nov 27
34 °FFog.8 mph93%30.15 "Hg2 mi
2:30 AM34 °FFog.7 mph93%30.15 "Hg2 mi
2:00 AM36 °FFog.7 mph93%30.15 "Hg3 mi
1:00 AM36 °FFog.6 mph87%30.15 "Hg3 mi
12:30 AM36 °FFog.6 mph93%30.15 "Hg2 mi
12:00 AM36 °FFog.5 mph87%30.18 "Hg2 mi
11:30 PM
Nov 26
36 °FFog.6 mph93%30.18 "Hg2 mi
11:00 PM36 °FFog.5 mph93%30.18 "Hg2 mi
10:30 PM36 °FFog.3 mph93%30.18 "Hg2 mi
10:00 PM37 °FFog.3 mph87%30.18 "Hg2 mi
9:30 PM37 °FFog.5 mph87%30.21 "Hg3 mi
9:00 PM37 °FFog.6 mph87%30.21 "Hg3 mi
8:30 PM37 °FFog.5 mph87%30.21 "Hg3 mi
8:00 PM37 °FFog.5 mph81%30.21 "Hg3 mi
7:30 PM37 °FFog.3 mph87%30.21 "Hg3 mi
7:00 PM37 °FFog.2 mph75%30.21 "Hg3 mi
6:30 PM39 °FFog.2 mph75%30.21 "Hg3 mi
6:00 PM39 °FPassing clouds.2 mph70%30.21 "Hg4 mi
5:30 PM39 °FPassing clouds.2 mph70%30.21 "Hg4 mi
5:00 PM39 °FFog.2 mph81%30.21 "Hg3 mi
4:30 PM39 °FFog.3 mph87%30.21 "Hg3 mi
4:00 PM39 °FPassing clouds.5 mph87%30.21 "Hg4 mi
3:30 PM39 °FPartly sunny.3 mph87%30.21 "Hg4 mi
3:00 PM39 °FPartly sunny.3 mph87%30.21 "Hg4 mi
2:30 PM41 °FPartly sunny.5 mph81%30.21 "Hg4 mi
2:00 PM41 °FPartly sunny.No wind76%30.21 "Hg5 mi
1:30 PM41 °FPartly sunny.No wind76%30.24 "Hg5 mi
1:00 PM41 °FPartly sunny.2 mph76%30.24 "Hg4 mi
12:30 PM41 °FPartly sunny.2 mph76%30.24 "Hg4 mi
12:00 PM41 °FPartly sunny.2 mph76%30.24 "Hg4 mi
11:30 AM41 °FFog.2 mph81%30.24 "Hg3 mi
11:00 AM39 °FFog.5 mph87%30.27 "Hg2 mi
10:30 AM39 °FFog.5 mph93%30.27 "Hg2 mi
10:00 AM39 °FFog.3 mph93%30.27 "Hg1 mi
9:30 AM37 °FFog.1 mph100%30.27 "Hg1 mi
9:00 AM37 °FFog.3 mph100%30.27 "Hg1 mi
8:30 AM37 °FFog.No wind100%30.27 "Hg1 mi
8:00 AM37 °FFog.2 mph100%30.27 "Hg1 mi
7:30 AM37 °FFog.1 mph100%30.27 "Hg1 mi
7:00 AM37 °FFog.1 mph100%30.27 "Hg1 mi
6:30 AM37 °FFog.3 mph100%30.27 "Hg1 mi
6:00 AM37 °FFog.5 mph100%30.27 "Hg1 mi
5:30 AM36 °FFog.3 mph100%30.27 "Hg1 mi
5:00 AM37 °FFog.3 mph93%30.27 "Hg1 mi
4:30 AM36 °FFog.3 mph100%30.27 "Hg0 mi
4:00 AM36 °FFog.2 mph100%30.27 "Hg0 mi
Weather by CustomWeather, © 2014

See weather overviewHow to use our weather pages